TimeEST,TemperatureF,Dew PointF,Humidity,Sea Level PressureIn,VisibilityMPH,Wind Direction,Wind SpeedMPH,Gust SpeedMPH,PrecipitationIn,Events,Conditions,WindDirDegrees,DateUTC
12:52 AM,48.9,41.0,74,30.19,10.0,North,6.9,-,N/A,,Overcast,350,2012-11-20 05:52:00
1:52 AM,48.9,42.1,77,30.18,10.0,North,6.9,-,N/A,,Overcast,360,2012-11-20 06:52:00
2:52 AM,48.9,42.1,77,30.17,10.0,North,8.1,-,N/A,,Overcast,360,2012-11-20 07:52:00
3:45 AM,48.2,42.8,82,30.17,10.0,North,5.8,-,N/A,,Overcast,350,2012-11-20 08:45:00
3:52 AM,48.9,42.1,77,30.17,10.0,North,5.8,-,N/A,,Overcast,350,2012-11-20 08:52:00
4:04 AM,48.2,42.8,82,30.17,10.0,North,6.9,-,N/A,,Overcast,350,2012-11-20 09:04:00
4:52 AM,48.9,42.1,77,30.18,10.0,NNW,5.8,-,N/A,,Overcast,340,2012-11-20 09:52:00
5:09 AM,48.2,42.8,82,30.17,10.0,North,8.1,-,N/A,,Overcast,360,2012-11-20 10:09:00
5:52 AM,48.9,43.0,80,30.17,10.0,North,8.1,-,N/A,,Overcast,10,2012-11-20 10:52:00
6:52 AM,48.9,43.0,80,30.17,10.0,NNW,5.8,-,N/A,,Overcast,340,2012-11-20 11:52:00
7:52 AM,48.9,43.0,80,30.18,10.0,North,5.8,-,N/A,,Overcast,350,2012-11-20 12:52:00
8:40 AM,50.0,42.8,76,30.18,10.0,North,8.1,-,N/A,,Mostly Cloudy,360,2012-11-20 13:40:00
8:52 AM,50.0,43.0,77,30.17,10.0,North,6.9,-,N/A,,Mostly Cloudy,360,2012-11-20 13:52:00
9:52 AM,51.1,43.0,74,30.17,10.0,NNW,3.5,-,N/A,,Mostly Cloudy,330,2012-11-20 14:52:00
10:52 AM,52.0,43.0,71,30.16,10.0,NNE,6.9,-,N/A,,Mostly Cloudy,20,2012-11-20 15:52:00
11:52 AM,54.0,43.0,66,30.14,10.0,NNE,6.9,-,N/A,,Mostly Cloudy,30,2012-11-20 16:52:00
12:52 PM,53.1,43.0,69,30.11,10.0,NNE,8.1,-,N/A,,Mostly Cloudy,20,2012-11-20 17:52:00
1:52 PM,53.1,42.1,66,30.11,10.0,North,10.4,-,N/A,,Mostly Cloudy,10,2012-11-20 18:52:00
2:52 PM,52.0,42.1,69,30.10,10.0,North,8.1,-,N/A,,Mostly Cloudy,10,2012-11-20 19:52:00
3:52 PM,51.1,43.0,74,30.10,10.0,North,8.1,-,N/A,,Mostly Cloudy,360,2012-11-20 20:52:00
4:52 PM,50.0,42.1,74,30.09,10.0,NNE,8.1,-,N/A,,Mostly Cloudy,20,2012-11-20 21:52:00
5:52 PM,50.0,43.0,77,30.10,10.0,North,5.8,-,N/A,,Mostly Cloudy,360,2012-11-20 22:52:00
6:52 PM,48.9,42.1,77,30.12,10.0,North,5.8,-,N/A,,Mostly Cloudy,360,2012-11-20 23:52:00
7:52 PM,48.9,42.1,77,30.12,10.0,North,8.1,-,N/A,,Mostly Cloudy,360,2012-11-21 00:52:00
8:52 PM,46.0,39.9,79,30.13,10.0,North,4.6,-,N/A,,Scattered Clouds,360,2012-11-21 01:52:00
9:52 PM,42.1,37.0,82,30.14,10.0,NNE,3.5,-,N/A,,Scattered Clouds,30,2012-11-21 02:52:00
10:52 PM,39.9,36.0,86,30.12,10.0,Calm,Calm,-,N/A,,Scattered Clouds,0,2012-11-21 03:52:00
11:52 PM,37.9,35.1,89,30.13,10.0,Calm,Calm,-,N/A,,Clear,0,2012-11-21 04:52:00